This is the latest recevied weather packets stored in our database for station/object W0AKO. If no packets are shown the sender has not sent any weather packets the latest 10 day(s).
| Time | Temp. | Humidity | Pressure | Rain* | Wind** | Luminosity | Snow |
|---|---|---|---|---|---|---|---|
| 1777843853 | 30.56° C | 10% | 1009.8 hPa | 0 mm | - | 728 W/m² | - |
| 1777843550 | 31.11° C | 10% | 1010.2 hPa | 0 mm | - | 649 W/m² | - |
| 1777843248 | 30.56° C | 10% | 1010.3 hPa | 0 mm | - | 799 W/m² | - |
| 1777842945 | 30° C | 10% | 1010.2 hPa | 0 mm | - | 567 W/m² | - |
| 1777842640 | 29.44° C | 10% | 1010.6 hPa | 0 mm | - | 267 W/m² | - |
| 1777842337 | 28.89° C | 10% | 1010.5 hPa | 0 mm | - | 407 W/m² | - |
| 1777842033 | 30° C | 10% | 1010.6 hPa | 0 mm | - | 194 W/m² | - |
| 1777841730 | 30° C | 10% | 1010.8 hPa | 0 mm | - | 505 W/m² | - |
| 1777841426 | 29.44° C | 10% | 1010.8 hPa | 0 mm | - | 195 W/m² | - |
| 1777841123 | 30° C | 10% | 1011 hPa | 0 mm | - | 292 W/m² | - |
| 1777840820 | 29.44° C | 10% | 1011 hPa | 0 mm | - | 684 W/m² | - |
| 1777840518 | 29.44° C | 10% | 1011.5 hPa | 0 mm | - | 195 W/m² | - |
| 1777840215 | 29.44° C | 10% | 1011.5 hPa | 0 mm | - | 207 W/m² | - |
| 1777839912 | 30° C | 10% | 1011.5 hPa | 0 mm | - | 746 W/m² | - |
| 1777839610 | 30° C | 10% | 1011.4 hPa | 0 mm | - | 865 W/m² | - |
| 1777839308 | 29.44° C | 10% | 1011.6 hPa | 0 mm | - | 822 W/m² | - |
| 1777839005 | 29.44° C | 10% | 1011.8 hPa | 0 mm | - | 391 W/m² | - |
| 1777838701 | 30° C | 10% | 1011.8 hPa | 0 mm | - | 276 W/m² | - |
| 1777838397 | 30° C | 10% | 1011.8 hPa | 0 mm | - | 838 W/m² | - |
| 1777838095 | 29.44° C | 10% | 1012 hPa | 0 mm | - | 368 W/m² | - |
| 1777837791 | 29.44° C | 10% | 1012.2 hPa | 0 mm | - | 824 W/m² | - |
| 1777837489 | 29.44° C | 10% | 1012.3 hPa | 0 mm | - | 820 W/m² | - |
| 1777837184 | 28.89° C | 10% | 1012.5 hPa | 0 mm | - | 774 W/m² | - |
| 1777836880 | 28.89° C | 10% | 1012.5 hPa | 0 mm | - | 295 W/m² | - |
| 1777836575 | 28.33° C | 10% | 1013 hPa | 0 mm | - | 518 W/m² | - |
* Rain latest hour (hover to see other rain measurements)
** Current wind speed in m/s (hover to see current wind gust speed)